Time,TemperatureF,DewpointF,PressureIn,WindDirection,WindDirectionDegrees,WindSpeedMPH,WindSpeedGustMPH,Humidity,HourlyPrecipIn,Conditions,Clouds,dailyrainin,SoftwareType,DateUTC
2013-07-06 00:01:00,70.4,66.0,30.07,WNW,284,1.0,2.0,86,0.00,,---,0.00,VWS V14.01,2013-07-06 04:01:00,
2013-07-06 00:16:00,70.9,66.2,30.07,WNW,284,0.0,1.0,85,0.00,,---,0.00,VWS V14.01,2013-07-06 04:16:00,
2013-07-06 00:31:00,70.6,65.9,30.07,WNW,284,1.0,1.0,85,0.00,,---,0.00,VWS V14.01,2013-07-06 04:31:00,
2013-07-06 00:46:00,71.0,66.3,30.07,WNW,284,0.0,2.0,85,0.00,,---,0.00,VWS V14.01,2013-07-06 04:46:00,
2013-07-06 01:01:00,71.0,66.3,30.07,WNW,284,0.0,4.0,85,0.00,,---,0.00,VWS V14.01,2013-07-06 05:01:00,
2013-07-06 01:16:00,71.0,66.3,30.07,SSE,166,2.0,5.0,85,0.00,,---,0.00,VWS V14.01,2013-07-06 05:16:00,
2013-07-06 01:31:00,71.2,66.5,30.07,SE,143,2.0,6.0,85,0.00,,---,0.00,VWS V14.01,2013-07-06 05:31:00,
2013-07-06 01:46:00,71.1,66.4,30.07,SE,143,2.0,4.0,85,0.00,,---,0.00,VWS V14.01,2013-07-06 05:46:00,
2013-07-06 02:01:00,70.9,66.2,30.07,SE,143,2.0,3.0,85,0.00,,---,0.00,VWS V14.01,2013-07-06 06:01:00,
2013-07-06 02:16:00,70.7,66.3,30.07,SE,143,0.0,4.0,86,0.00,,---,0.00,VWS V14.01,2013-07-06 06:16:00,
2013-07-06 02:31:00,70.5,66.1,30.07,SE,143,0.0,4.0,86,0.00,,---,0.00,VWS V14.01,2013-07-06 06:31:00,
2013-07-06 02:46:00,70.4,66.0,30.07,SSE,152,2.0,5.0,86,0.00,,---,0.00,VWS V14.01,2013-07-06 06:46:00,
2013-07-06 03:01:00,70.3,65.9,30.06,SSE,152,0.0,3.0,86,0.00,,---,0.00,VWS V14.01,2013-07-06 07:01:00,
2013-07-06 03:16:00,70.1,66.1,30.06,SSE,152,0.0,3.0,87,0.00,,---,0.00,VWS V14.01,2013-07-06 07:16:00,
2013-07-06 03:31:00,70.0,66.0,30.06,SSE,152,3.0,3.0,87,0.00,,---,0.00,VWS V14.01,2013-07-06 07:31:00,
2013-07-06 03:46:00,69.8,65.8,30.06,SSE,152,0.0,3.0,87,0.00,,---,0.00,VWS V14.01,2013-07-06 07:46:00,
2013-07-06 04:01:00,69.6,65.6,30.06,SSE,152,0.0,2.0,87,0.00,,---,0.00,VWS V14.01,2013-07-06 08:01:00,
2013-07-06 04:16:00,69.5,65.8,30.06,SSE,152,0.0,2.0,88,0.00,,---,0.00,VWS V14.01,2013-07-06 08:16:00,
2013-07-06 04:31:00,69.2,65.5,30.06,SSE,152,1.0,1.0,88,0.00,,---,0.00,VWS V14.01,2013-07-06 08:31:00,
2013-07-06 04:46:00,69.0,65.6,30.06,SSE,152,0.0,2.0,89,0.00,,---,0.00,VWS V14.01,2013-07-06 08:46:00,
2013-07-06 05:01:00,68.7,65.3,30.06,SSE,152,0.0,2.0,89,0.00,,---,0.00,VWS V14.01,2013-07-06 09:01:00,
2013-07-06 05:16:00,68.5,65.5,30.06,SSE,152,0.0,2.0,90,0.00,,---,0.00,VWS V14.01,2013-07-06 09:16:00,
2013-07-06 05:31:00,68.2,65.2,30.06,SSE,152,0.0,0.0,90,0.00,,---,0.00,VWS V14.01,2013-07-06 09:31:00,
2013-07-06 05:46:00,67.7,65.0,30.07,SSE,152,0.0,0.0,91,0.00,,---,0.00,VWS V14.01,2013-07-06 09:46:00,
2013-07-06 06:01:00,67.2,64.5,30.07,SSE,152,0.0,0.0,91,0.00,,---,0.00,VWS V14.01,2013-07-06 10:01:00,
2013-07-06 06:16:00,67.0,64.6,30.06,SSE,152,0.0,0.0,92,0.00,,---,0.00,VWS V14.01,2013-07-06 10:16:00,
2013-07-06 06:31:00,66.7,64.3,30.07,South,179,0.0,0.0,92,0.00,,---,0.00,VWS V14.01,2013-07-06 10:31:00,
2013-07-06 06:46:00,66.6,64.5,30.07,ENE,67,0.0,1.0,93,0.00,,---,0.00,VWS V14.01,2013-07-06 10:46:00,
2013-07-06 07:01:00,66.9,65.1,30.07,East,94,0.0,1.0,94,0.00,,---,0.00,VWS V14.01,2013-07-06 11:01:00,
2013-07-06 07:16:00,67.3,65.5,30.07,SSE,165,0.0,1.0,94,0.00,,---,0.00,VWS V14.01,2013-07-06 11:16:00,
2013-07-06 07:31:00,67.7,65.9,30.07,East,101,0.0,1.0,94,0.00,,---,0.00,VWS V14.01,2013-07-06 11:31:00,
2013-07-06 07:46:00,68.2,66.1,30.07,SSW,198,0.0,2.0,93,0.00,,---,0.00,VWS V14.01,2013-07-06 11:46:00,
2013-07-06 08:01:00,68.9,66.8,30.07,SSW,196,0.0,2.0,93,0.00,,---,0.00,VWS V14.01,2013-07-06 12:01:00,
2013-07-06 08:16:00,70.0,67.3,30.07,South,184,0.0,4.0,91,0.00,,---,0.00,VWS V14.01,2013-07-06 12:16:00,
2013-07-06 08:31:00,70.9,67.8,30.08,SSW,211,2.0,7.0,90,0.00,,---,0.00,VWS V14.01,2013-07-06 12:31:00,
2013-07-06 08:46:00,71.5,68.1,30.07,SSW,204,3.0,5.0,89,0.00,,---,0.00,VWS V14.01,2013-07-06 12:46:00,
2013-07-06 09:01:00,72.9,68.8,30.07,WNW,296,2.0,5.0,87,0.00,,---,0.00,VWS V14.01,2013-07-06 13:01:00,
2013-07-06 09:16:00,73.7,68.9,30.07,South,186,0.0,4.0,85,0.00,,---,0.00,VWS V14.01,2013-07-06 13:16:00,
2013-07-06 09:31:00,74.0,69.2,30.07,SSW,204,2.0,4.0,85,0.00,,---,0.00,VWS V14.01,2013-07-06 13:31:00,
2013-07-06 09:46:00,74.2,69.4,30.07,West,279,3.0,5.0,85,0.00,,---,0.00,VWS V14.01,2013-07-06 13:46:00,
2013-07-06 10:01:00,74.5,69.3,30.07,West,274,3.0,5.0,84,0.00,,---,0.00,VWS V14.01,2013-07-06 14:01:00,
2013-07-06 10:16:00,75.3,69.4,30.07,SSW,209,2.0,4.0,82,0.00,,---,0.00,VWS V14.01,2013-07-06 14:16:00,
2013-07-06 10:31:00,76.2,69.2,30.06,WNW,299,1.0,4.0,79,0.00,,---,0.00,VWS V14.01,2013-07-06 14:31:00,
2013-07-06 10:46:00,75.8,69.2,30.06,SW,227,3.0,3.0,80,0.00,,---,0.00,VWS V14.01,2013-07-06 14:46:00,
2013-07-06 11:01:00,76.6,68.9,30.05,ESE,117,1.0,3.0,77,0.00,,---,0.00,VWS V14.01,2013-07-06 15:01:00,
2013-07-06 11:16:00,78.4,69.4,30.05,ESE,117,0.0,2.0,74,0.00,,---,0.00,VWS V14.01,2013-07-06 15:16:00,
2013-07-06 11:31:00,79.1,68.9,30.05,SE,136,1.0,4.0,71,0.00,,---,0.00,VWS V14.01,2013-07-06 15:31:00,
2013-07-06 11:46:00,78.6,68.8,30.05,SE,144,2.0,7.0,72,0.00,,---,0.00,VWS V14.01,2013-07-06 15:46:00,
2013-07-06 12:01:00,77.9,68.2,30.05,South,172,3.0,5.0,72,0.00,,---,0.00,VWS V14.01,2013-07-06 16:01:00,
2013-07-06 12:16:00,78.0,69.1,30.05,SE,129,3.0,5.0,74,0.00,,---,0.00,VWS V14.01,2013-07-06 16:16:00,
2013-07-06 12:31:00,78.2,68.4,30.05,SE,139,0.0,5.0,72,0.00,,---,0.00,VWS V14.01,2013-07-06 16:31:00,
2013-07-06 13:01:00,79.1,68.5,30.04,South,178,1.0,6.0,70,0.00,,---,0.00,VWS V14.01,2013-07-06 17:01:00,
2013-07-06 13:16:00,78.4,69.0,30.04,SSE,150,1.0,5.0,73,0.00,,---,0.00,VWS V14.01,2013-07-06 17:16:00,
2013-07-06 13:31:00,77.8,68.9,30.03,SE,146,4.0,6.0,74,0.00,,---,0.00,VWS V14.01,2013-07-06 17:31:00,
2013-07-06 13:46:00,78.2,68.8,30.03,SSE,153,2.0,7.0,73,0.00,,---,0.00,VWS V14.01,2013-07-06 17:46:00,
2013-07-06 14:01:00,78.1,69.1,30.02,SE,144,1.0,8.0,74,0.00,,---,0.00,VWS V14.01,2013-07-06 18:01:00,
2013-07-06 14:46:00,77.1,69.7,30.03,South,186,2.0,11.0,78,0.00,,---,0.00,VWS V14.01,2013-07-06 18:46:00,
2013-07-06 15:31:00,75.6,68.3,30.02,SE,146,5.0,10.0,78,0.00,,---,0.00,VWS V14.01,2013-07-06 19:31:00,
2013-07-06 15:46:00,75.6,69.0,30.02,South,191,4.0,12.0,80,0.00,,---,0.00,VWS V14.01,2013-07-06 19:46:00,
2013-07-06 16:01:00,75.8,68.8,30.02,SSE,157,2.0,6.0,79,0.00,,---,0.00,VWS V14.01,2013-07-06 20:01:00,
2013-07-06 16:16:00,75.7,69.1,30.02,SE,146,4.0,7.0,80,0.00,,---,0.00,VWS V14.01,2013-07-06 20:16:00,
2013-07-06 16:31:00,75.4,68.8,30.02,SSW,203,3.0,9.0,80,0.00,,---,0.00,VWS V14.01,2013-07-06 20:31:00,
2013-07-06 16:46:00,75.4,68.8,30.02,SW,231,4.0,7.0,80,0.00,,---,0.00,VWS V14.01,2013-07-06 20:46:00,
2013-07-06 17:01:00,75.0,69.1,30.02,SW,223,3.0,8.0,82,0.00,,---,0.00,VWS V14.01,2013-07-06 21:01:00,
2013-07-06 17:16:00,74.6,68.4,30.01,WSW,252,4.0,7.0,81,0.00,,---,0.00,VWS V14.01,2013-07-06 21:16:00,
2013-07-06 17:31:00,74.3,67.7,30.01,WSW,238,5.0,8.0,80,0.00,,---,0.00,VWS V14.01,2013-07-06 21:31:00,
2013-07-06 17:46:00,74.5,67.6,30.01,SSW,195,2.0,5.0,79,0.00,,---,0.00,VWS V14.01,2013-07-06 21:46:00,
2013-07-06 18:01:00,74.7,67.8,30.01,SW,218,3.0,6.0,79,0.00,,---,0.00,VWS V14.01,2013-07-06 22:01:00,
2013-07-06 18:16:00,74.3,68.1,30.00,SW,223,0.0,4.0,81,0.00,,---,0.00,VWS V14.01,2013-07-06 22:16:00,
2013-07-06 18:46:00,74.6,68.4,29.98,ESE,107,0.0,3.0,81,0.00,,---,0.00,VWS V14.01,2013-07-06 22:46:00,
2013-07-06 19:01:00,74.5,68.3,29.99,SSE,153,1.0,3.0,81,0.00,,---,0.00,VWS V14.01,2013-07-06 23:01:00,
2013-07-06 19:16:00,74.3,68.4,29.99,WNW,303,0.0,3.0,82,0.00,,---,0.00,VWS V14.01,2013-07-06 23:16:00,
2013-07-06 19:31:00,74.3,68.8,29.99,West,281,0.0,4.0,83,0.00,,---,0.00,VWS V14.01,2013-07-06 23:31:00,
2013-07-06 19:46:00,74.3,68.8,29.99,West,275,1.0,4.0,83,0.00,,---,0.00,VWS V14.01,2013-07-06 23:46:00,
2013-07-06 20:01:00,74.0,68.9,29.98,West,275,2.0,5.0,84,0.00,,---,0.00,VWS V14.01,2013-07-07 00:01:00,
2013-07-06 20:16:00,73.9,69.1,29.98,West,275,1.0,4.0,85,0.00,,---,0.00,VWS V14.01,2013-07-07 00:16:00,
2013-07-06 20:31:00,73.6,68.8,29.98,West,269,1.0,5.0,85,0.00,,---,0.00,VWS V14.01,2013-07-07 00:31:00,
2013-07-06 21:16:00,72.9,68.5,29.99,West,275,1.0,2.0,86,0.00,,---,0.00,VWS V14.01,2013-07-07 01:16:00,
2013-07-06 21:31:00,72.6,68.2,30.00,West,273,0.0,3.0,86,0.00,,---,0.00,VWS V14.01,2013-07-07 01:31:00,
2013-07-06 22:01:00,72.0,68.3,30.00,West,273,2.0,3.0,88,0.00,,---,0.00,VWS V14.01,2013-07-07 02:01:00,
2013-07-06 22:16:00,71.7,68.0,30.01,West,273,0.0,4.0,88,0.00,,---,0.00,VWS V14.01,2013-07-07 02:16:00,
2013-07-06 22:31:00,71.4,68.0,30.01,West,273,2.0,3.0,89,0.00,,---,0.00,VWS V14.01,2013-07-07 02:31:00,
2013-07-06 22:46:00,71.2,67.8,30.02,West,273,1.0,3.0,89,0.00,,---,0.00,VWS V14.01,2013-07-07 02:46:00,
2013-07-06 23:01:00,71.0,67.6,30.02,West,273,0.0,3.0,89,0.00,,---,0.00,VWS V14.01,2013-07-07 03:01:00,
2013-07-06 23:31:00,70.6,67.5,30.03,West,273,0.0,3.0,90,0.00,,---,0.00,VWS V14.01,2013-07-07 03:31:00,